Manitowoc, WI

10:03 AM CDT on April 24, 2017 (GMT -0500)
Manitowoc County

Weather History for KMTW - October, 2011

Change the Weather History Date:

Sunday, October 30, 2011

  Actual Average Record
Temperature  
Mean Temperature 39 °F -  
Max Temperature 50 °F 52 °F 69 °F (1999)
Min Temperature 28 °F 36 °F 20 °F (1988)
Degree Days  
Heating Degree Days 26    
Moisture  
Dew Point 34 °F    
Average Humidity 80    
Maximum Humidity 93    
Minimum Humidity 58    
Precipitation  
Precipitation 0.04 in - - ()
Sea Level Pressure  
Sea Level Pressure 29.99 in    
Wind  
Wind Speed 5 mph (SSE)    
Max Wind Speed 23 mph    
Max Gust Speed 31 mph    
Visibility 9 miles    
Events      
Averages and records for this station are not official NWS values.
T = Trace of Precipitation, MM = Missing Value Source: NWS Daily Summary

Daily Weather History Graph

Daily Weather History Graph

Search for Another Location

Airport or City:

Trip Planner

Search our weather history database for the weather conditions in past years. The results will help you decide how hot, cold, wet, or windy it might be!

Date:

Astronomy

Oct. 30, 2011 Rise Set
Actual Time 7:24 AM CDT 5:43 PM CDT
Civil Twilight 6:54 AM CDT 6:13 PM CDT
Nautical Twilight 6:20 AM CDT 6:47 PM CDT
Astronomical Twilight 5:46 AM CDT 7:21 PM CDT
Moon 11:49 AM CDT (10/30) 9:06 PM CDT (10/30)
Length of Visible Light 11h 19m
Length of Day
10h 19m
Waxing Crescent, 20% of the Moon is Illuminated
Oct 30
Waxing Crescent
Nov 2
First Quarter
Nov 10
Full
Nov 18
Last Quarter
Nov 25
New

Hourly Weather History & Observations

Time (CDT) Temp. Windchill Dew Point Humidity Pressure Visibility Wind Dir Wind Speed Gust Speed Precip Events Conditions
12:15 AM 30.2 °F - 26.6 °F 86% 30.10 in 10.0 mi Calm Calm - N/A   Clear
12:35 AM 30.2 °F - 26.6 °F 86% 30.10 in 10.0 mi Calm Calm - N/A   Clear
12:55 AM 32.0 °F - 26.6 °F 80% 30.10 in 10.0 mi Calm Calm - N/A   Clear
1:15 AM 30.2 °F - 26.6 °F 86% 30.10 in 10.0 mi Calm Calm - N/A   Clear
1:35 AM 32.0 °F - 26.6 °F 80% 30.10 in 10.0 mi Calm Calm - N/A   Clear
1:55 AM 30.2 °F - 24.8 °F 80% 30.10 in 10.0 mi Calm Calm - N/A   Clear
2:15 AM 30.2 °F - 26.6 °F 86% 30.10 in 10.0 mi Calm Calm - N/A   Clear
2:55 AM 28.4 °F - 24.8 °F 86% 30.10 in 10.0 mi Calm Calm - N/A   Clear
3:15 AM 30.2 °F - 26.6 °F 86% 30.09 in 10.0 mi Calm Calm - N/A   Clear
3:35 AM 30.2 °F - 26.6 °F 86% 30.09 in 10.0 mi Calm Calm - N/A   Clear
3:55 AM 30.2 °F - 26.6 °F 86% 30.09 in 10.0 mi Calm Calm - N/A   Clear
4:15 AM 30.2 °F - 26.6 °F 86% 30.08 in 10.0 mi Calm Calm - N/A   Clear
4:35 AM 30.2 °F - 26.6 °F 86% 30.08 in 10.0 mi Calm Calm - N/A   Clear
4:55 AM 28.4 °F - 26.6 °F 93% 30.08 in 10.0 mi Calm Calm - N/A   Clear
5:15 AM 30.2 °F - 26.6 °F 86% 30.08 in 10.0 mi Calm Calm - N/A   Clear
5:35 AM 28.4 °F - 24.8 °F 86% 30.08 in 9.0 mi Calm Calm - N/A   Clear
5:55 AM 30.2 °F - 24.8 °F 80% 30.08 in 9.0 mi Calm Calm - N/A   Clear
6:55 AM 30.2 °F - 24.8 °F 80% 30.07 in 10.0 mi Calm Calm - N/A   Clear
7:15 AM 30.2 °F - 26.6 °F 86% 30.07 in 10.0 mi Calm Calm - N/A   Mostly Cloudy
7:35 AM 30.2 °F - 26.6 °F 86% 30.07 in 9.0 mi Calm Calm - N/A   Mostly Cloudy
7:55 AM 30.2 °F - 26.6 °F 86% 30.07 in 10.0 mi Calm Calm - N/A   Mostly Cloudy
8:15 AM 32.0 °F - 28.4 °F 87% 30.07 in 9.0 mi Calm Calm - N/A   Overcast
8:35 AM 33.8 °F - 30.2 °F 87% 30.06 in 10.0 mi Calm Calm - N/A   Overcast
8:55 AM 35.6 °F - 32.0 °F 87% 30.06 in 9.0 mi Calm Calm - N/A   Overcast
9:15 AM 39.2 °F - 35.6 °F 87% 30.05 in 10.0 mi Calm Calm - N/A   Mostly Cloudy
10:15 AM 48.2 °F - 35.6 °F 62% 30.04 in 10.0 mi SSE 17.3 mph 23.0 mph N/A   Overcast
10:35 AM 48.2 °F - 35.6 °F 62% 30.03 in 10.0 mi SSE 15.0 mph 24.2 mph N/A   Overcast
10:55 AM 50.0 °F - 35.6 °F 58% 30.03 in 10.0 mi SSE 19.6 mph 25.3 mph N/A   Overcast
11:55 AM 50.0 °F - 35.6 °F 58% 30.00 in 10.0 mi SE 19.6 mph 28.8 mph N/A   Overcast
12:35 PM 50.0 °F - 35.6 °F 58% 29.97 in 10.0 mi SE 17.3 mph 31.1 mph N/A   Mostly Cloudy
12:55 PM 50.0 °F - 35.6 °F 58% 29.96 in 10.0 mi SE 23.0 mph 31.1 mph N/A   Mostly Cloudy
1:15 PM 50.0 °F - 35.6 °F 58% 29.95 in 10.0 mi SE 17.3 mph 27.6 mph N/A   Overcast
1:35 PM 50.0 °F - 35.6 °F 58% 29.93 in 10.0 mi SE 21.9 mph 28.8 mph N/A   Overcast
1:55 PM 50.0 °F - 37.4 °F 62% 29.93 in 10.0 mi SSE 18.4 mph 29.9 mph N/A   Overcast
2:15 PM 50.0 °F - 37.4 °F 62% 29.92 in 10.0 mi SSE 20.7 mph 28.8 mph N/A   Mostly Cloudy
2:35 PM 50.0 °F - 37.4 °F 62% 29.91 in 10.0 mi SSE 20.7 mph 29.9 mph N/A   Mostly Cloudy
2:55 PM 48.2 °F - 37.4 °F 66% 29.89 in 10.0 mi SE 16.1 mph - N/A   Overcast
3:35 PM 48.2 °F - 39.2 °F 71% 29.90 in 10.0 mi SSE 19.6 mph 26.5 mph N/A   Overcast
3:55 PM 48.2 °F - 37.4 °F 66% 29.90 in 7.0 mi SSE 15.0 mph 19.6 mph N/A   Overcast
4:15 PM 46.4 °F 39.5 °F 39.2 °F 76% 29.90 in 7.0 mi South 17.3 mph - 0.01 in   Overcast
4:55 PM 46.4 °F 41.1 °F 41.0 °F 81% 29.89 in 8.0 mi SSE 11.5 mph 17.3 mph 0.03 in   Overcast
5:15 PM 46.4 °F 41.9 °F 42.8 °F 87% 29.89 in 8.0 mi SE 9.2 mph - N/A   Overcast
5:35 PM 46.4 °F 41.9 °F 42.8 °F 87% 29.89 in 10.0 mi SE 9.2 mph - 0.01 in   Overcast
6:15 PM 48.2 °F - 42.8 °F 82% 29.88 in 10.0 mi SSE 13.8 mph 18.4 mph N/A   Overcast
6:35 PM 48.2 °F - 42.8 °F 82% 29.88 in 10.0 mi SSE 15.0 mph 18.4 mph N/A   Overcast
6:55 PM 48.2 °F - 42.8 °F 82% 29.88 in 10.0 mi SSE 12.7 mph - N/A   Overcast
7:35 PM 46.4 °F 39.8 °F 41.0 °F 81% 29.88 in 10.0 mi South 16.1 mph 23.0 mph N/A   Overcast
7:55 PM 46.4 °F 39.0 °F 41.0 °F 81% 29.88 in 10.0 mi South 19.6 mph 24.2 mph N/A   Overcast
8:15 PM 44.6 °F 38.1 °F 42.8 °F 93% 29.88 in 10.0 mi South 13.8 mph - N/A   Overcast
9:15 PM 44.6 °F 38.4 °F 42.8 °F 93% 29.88 in 7.0 mi South 12.7 mph - N/A   Overcast
9:35 PM 44.6 °F 39.2 °F 42.8 °F 93% 29.89 in 6.0 mi South 10.4 mph - N/A   Overcast
9:55 PM 44.6 °F 39.7 °F 42.8 °F 93% 29.89 in 8.0 mi South 9.2 mph - N/A   Overcast
10:15 PM 44.6 °F 40.2 °F 42.8 °F 93% 29.90 in 8.0 mi South 8.1 mph - N/A   Overcast
10:35 PM 44.6 °F 40.2 °F 42.8 °F 93% 29.90 in 8.0 mi South 8.1 mph - N/A   Overcast
10:55 PM 44.6 °F 40.7 °F 42.8 °F 93% 29.90 in 8.0 mi South 6.9 mph - N/A   Overcast
11:15 PM 44.6 °F 41.4 °F 41.0 °F 87% 29.90 in 7.0 mi South 5.8 mph - N/A   Overcast
11:35 PM 44.6 °F 41.4 °F 41.0 °F 87% 29.90 in 6.0 mi South 5.8 mph - N/A   Overcast
11:55 PM 44.6 °F 43.1 °F 42.8 °F 93% 29.90 in 5.0 mi SW 3.5 mph - N/A   Overcast